Home > Weather > Rawalpindi > Past weeks

Flag for Pakistan Weather for the Past 2 Weeks in Rawalpindi, Pakistan

Now
59 °F

Haze.


Feels Like: 59 °F
Forecast: 49 / 62 °F
Wind: 5 mph from Northwest

Location: Islamabad Airport

Current Time: Feb 9, 2016 at 11:39:55 AM

Latest Report: Feb 9, 2016 at 11:00 AM


Visibility: 2 mi

Pressure: 30.07 "Hg (28.34 "Hg at 501m altitude)

Humidity: 59%

Dew point: 45 °F

Location of RawalpindiLocation

Historic Weather in Rawalpindi — Graph

°F

Rawalpindi Temperature Yesterday

Maximum temperature yesterday: 70 °F (at 3:00 PM)
Minimum temperature yesterday: 50 °F (at 9:53 AM)
Average temperature yesterday: 64 °F

High & Low Weather Summary for the Past Weeks

 TemperatureHumidityPressure
High73 °F (Feb 5, 2:00 PM)100% (Jan 28, 4:00 AM)30.15 "Hg (Jan 28, 4:00 AM)
Low41 °F (Jan 31, 6:00 AM)27% (Feb 5, 2:00 PM)29.89 "Hg (Feb 6, 5:00 AM)
Average56 °F68%30.05 "Hg
* Reported Jan 25 10:00 AM — Feb 9 10:00 AM, Rawalpindi, Weather by CustomWeather, © 2016

Note: Actual official high and low records may vary slightly from our data, if they occured in-between our weather recording intervals... More about our weather records

Advertising

Rawalpindi Weather History for the Previous 24 Hours

 ConditionsComfort  
Time TempWeatherWind HumidityBarometerVisibility
10:00 AM
Tue, Feb 9
55 °FHaze.No wind72%30.07 "Hg1 mi
9:30 AM48 °FFog.No wind82%30.07 "Hg1 mi
9:00 AM48 °FFog.No wind82%30.07 "Hg1 mi
8:00 AM46 °FFog.No wind87%30.04 "Hg1 mi
7:30 AM46 °FFog.No wind82%30.04 "Hg1 mi
7:00 AM46 °FFog.No wind82%30.04 "Hg1 mi
5:00 AM46 °FFog.No wind93%30.04 "Hg2 mi
4:30 AM46 °FFog.5 mph82%30.07 "Hg2 mi
4:00 AM46 °FFog.5 mph82%30.07 "Hg2 mi
3:00 AM48 °FHaze.5 mph76%30.07 "Hg2 mi
2:00 AM52 °FHaze.5 mph77%30.07 "Hg2 mi
1:00 AM52 °FHaze.5 mph77%30.09 "Hg2 mi
12:00 AM52 °FHaze.5 mph77%30.09 "Hg2 mi
11:00 PM
Mon, Feb 8
54 °FHaze.5 mph77%30.12 "Hg2 mi
10:30 PM55 °FHaze.5 mph72%30.09 "Hg2 mi
10:00 PM55 °FHaze.5 mph72%30.09 "Hg2 mi
9:00 PM57 °FHaze.5 mph67%30.09 "Hg2 mi
8:00 PM61 °FHaze.5 mph68%30.09 "Hg2 mi
7:30 PM63 °FHaze.No wind64%30.07 "Hg2 mi
7:00 PM63 °FHaze.No wind64%30.07 "Hg2 mi
6:00 PM66 °FPassing clouds.No wind52%30.07 "Hg2 mi
5:30 PM68 °FScattered clouds.5 mph46%30.07 "Hg2 mi
4:30 PM70 °FScattered clouds.5 mph43%30.07 "Hg2 mi
4:00 PM70 °FHaze.5 mph43%30.07 "Hg2 mi
3:30 PM70 °FHaze.5 mph43%30.07 "Hg2 mi
3:00 PM70 °FHaze.5 mph43%30.07 "Hg2 mi
2:30 PM68 °FHaze.5 mph53%30.09 "Hg2 mi
2:00 PM68 °FHaze.5 mph53%30.09 "Hg2 mi
1:30 PM68 °FHaze.5 mph53%30.12 "Hg2 mi
1:00 PM68 °FHaze.5 mph53%30.12 "Hg2 mi
12:30 PM64 °FHaze.5 mph60%30.15 "Hg2 mi
12:00 PM64 °FHaze.5 mph60%30.15 "Hg2 mi
Weather by CustomWeather, © 2016

See weather overviewHow to use our weather pages